Location: ???? ?????????
(31.1304°N, 31.7111°E)
Time: 12:37:41
(UTC+00:00)

S-56A Canister/Altair - Visible Passes

Search period start: 07 March 2021 00:00
Search period end: 17 March 2021 00:00
Orbit: 631 x 2501 km, 38.9° (Epoch: 06 March)

Date Brightness Start Highest point End Pass type
(mag) Time Alt. Az. Time Alt. Az. Time Alt. Az.
07 Mar 10.0 15:55:28 10° WNW 16:10:47 84° SSW 16:22:50 10° ESE visible
07 Mar 10.6 18:03:57 10° WNW 18:15:50 34° SW 18:23:32 15° S visible
08 Mar 10.6 17:29:50 10° WNW 17:42:46 40° SW 17:52:46 10° SSE visible
09 Mar 10.6 16:55:50 10° WNW 17:09:35 46° SW 17:20:23 10° SSE visible
09 Mar 11.4 19:12:15 10° WSW 19:13:01 10° WSW 19:13:45 10° SW visible
10 Mar 10.6 16:21:57 10° WNW 16:36:17 52° SW 16:47:53 10° SSE visible
10 Mar 11.3 18:34:13 10° W 18:40:08 14° WSW 18:45:25 10° SSW visible
11 Mar 11.3 17:58:51 10° W 18:07:11 18° SW 18:14:25 10° SSW visible
12 Mar 11.3 17:24:05 10° W 17:34:08 23° SW 17:42:50 10° S visible
13 Mar 11.3 16:49:38 10° W 17:01:01 27° SW 17:10:53 10° S visible
14 Mar 11.3 16:15:27 10° WNW 16:27:48 32° SW 16:38:43 10° S visible
